Regional Weather Roundup
Issued by NWS

Home | Current Version | Previous Version | Graphics & Text | Print | Product List | Glossary On
Versions: 1 2 3 4 5 6 7 8 9 10 11 12 13 14 15 16 17 18 19 20 21 22 23 24 25 26 27 28 29 30 31 32 33 34 35 36 37 38 39 40 41 42 43 44 45 46 47 48 49 50
315
ASUS43 KLOT 231503
RWRIL

ILLINOIS REGIONAL WEATHER ROUNDUP
NATIONAL WEATHER SERVICE CHICAGO/ROMEOVILLE IL
900 AM CST THU FEB 23 2017

NOTE: "FAIR" INDICATES FEW OR NO CLOUDS BELOW 12,000 FEET WITH NO
SIGNIFICANT WEATHER AND/OR OBSTRUCTIONS TO VISIBILITY.

* THESE STATIONS ARE NOT UNDER NWS QUALITY CONTROL. THEY ALSO MAY NOT
  REPORT WEATHER SUCH AS PRECIPITATION OR FOG.

ILZ001-002-007-009-015-016-024-231600-
NORTHWEST ILLINOIS

CITY           SKY/WX    TMP DP  RH WIND       PRES   REMARKS
MOLINE         PTSUNNY  N/A N/A N/A N7        29.80R
STERLING*      SUNNY     47  41  80 N8        29.81R
SAVANNA*       CLOUDY    45  39  78 N8        29.79R
$$

ILZ003-004-008-010-011-017-018-231600-
NORTH CENTRAL ILLINOIS

CITY           SKY/WX    TMP DP  RH WIND       PRES   REMARKS
ROCKFORD       PTSUNNY   48  39  71 N18       29.79S
FREEPORT*      CLOUDY    43  39  84 N9G16     29.79F
ROCHELLE*      MOSUNNY   46  42  87 N10       29.79R
DE KALB*       SUNNY     47  42  80 N13       29.79R
PERU*          SUNNY     46  41  85 CALM      29.80R
$$

ILZ005-006-012>014-019>023-231600-
NORTHEAST ILLINOIS

CITY           SKY/WX    TMP DP  RH WIND       PRES   REMARKS
CHICAGO-OHARE  MOSUNNY   51  41  68 NE12      29.77R
CHICAGO-MIDWAY MOSUNNY   53  41  63 NE10      29.78R
AURORA         SUNNY     51  44  77 CALM      29.79R
LANSING*       MOSUNNY   50  44  80 NE7       29.78R
JOLIET*        MOSUNNY   52  46  79 NE5       29.79R
WAUKEGAN       CLOUDY    42  37  82 NE14G21   29.79R
DUPAGE AIRPORT SUNNY     50  42  74 N7        29.77R
KANKAKEE*      MOSUNNY   50  49  97 CALM      29.80R
WHEELING       MOSUNNY   50  40  68 N5        29.79R
MORRIS*        SUNNY     50  45  83 CALM      29.78R
ROMEOVILLE*    MOSUNNY   50  46  86 NE7       29.79R
NORTHERLY ISL    N/A     46  40  79 NE3         N/A
$$

LMZ740>746-231600-
SOUTHERN LAKE MICHIGAN

STATION/POSITION SKY/WX   TEMP    WIND        PRES    VSBY  WAVE
                          AIR SEA DIR/SP/G                  HT/PER
                          (F)     (DEG/KT/KT) (MB)    (MI)  (FT/S)
HARRISON CRIB              47      10/  6/  7   N/A
BURNHAM HARBOR             48      10/  6/  9   N/A
CALUMET HARBOR             48      10/  7/  8 1007.8S
BURNS HARBOR               44      50/  3/  6 1009.1R
MICHIGAN CITY              43     320/  5/  6   N/A
$$

ILZ025>027-034>036-040-047-049-050-058-095>099-231600-
WEST-CENTRAL ILLINOIS

CITY           SKY/WX    TMP DP  RH WIND       PRES   REMARKS
QUINCY         CLOUDY    45  43  93 NE15      29.76F FOG
GALESBURG*     CLOUDY    44  41  91 N7        29.81R
MACOMB*        CLOUDY    43  42  97 N13       29.81R
JACKSONVILLE*  PTSUNNY   49  48  93 N7        29.76R
PITTSFIELD*    PTSUNNY   49  46  90 NE6       29.77S
$$

ILZ028>032-037-038-041>044-048-051>054-059>061-231600-
CENTRAL ILLINOIS

CITY           SKY/WX    TMP DP  RH WIND       PRES   REMARKS
PONTIAC        SUNNY     51  48  90 NE10      29.78F
BLOOMINGTON    SUNNY     49  46  90 N15       29.77S
DECATUR        FOG       51  50  96 E3        29.75S VSB 1/4
PEORIA         MOSUNNY   48  45  89 N9        29.77S
LACON*         MOSUNNY   47  45  92 N5        29.79R
LINCOLN*       MOSUNNY   51  51 100 N7        29.75F
SPRINGFIELD    CLOUDY    50  48  93 NE6       29.76R FOG
TAYLORVILLE    FOG       52  52 100 CALM      29.75R VSB 1
$$

ILZ033-039-045-046-055>057-062-063-231600-
EAST-CENTRAL ILLINOIS

CITY           SKY/WX    TMP DP  RH WIND       PRES   REMARKS
CHAMPAIGN      FOG       53  51  93 CALM      29.76S VSB 1/8
RANTOUL*       SUNNY     54  53  96 CALM      29.76R
MATTOON        FOG       55  55 100 S8        29.75F VSB 3/4
PARIS*         CLOUDY    56  56  98 SW7       29.78S FOG
$$

ILZ079-100>102-231600-
SOUTHWEST ILLINOIS

CITY           SKY/WX    TMP DP  RH WIND       PRES   REMARKS
ALTON          PTSUNNY   52  52 100 E6        29.75R FOG
BELLEVILLE     CLOUDY    57  57 100 CALM      29.73S
CAHOKIA*       CLOUDY    57  53  86 S5        29.74R
SPARTA*        PTSUNNY   57  54  89 S10       29.75F
$$

ILZ064>066-069>071-074>076-080>082-084>086-088>090-092>094-231600-
SOUTH-CENTRAL ILLINOIS

CITY           SKY/WX    TMP DP  RH WIND       PRES   REMARKS
CARBONDALE     CLOUDY    59  58  96 S10       29.77S
CAIRO*         CLOUDY    58  57  95 S6        29.80S
EFFINGHAM*     CLOUDY    57  57 100 SE7       29.77F FOG
MARION         PTSUNNY   59  59 100 S6        29.78S
MT. VERNON     PTSUNNY   58  56  93 S7        29.77S
CENTRALIA*     PTSUNNY   61  58  88 S7        29.75R
SALEM*         MOSUNNY   61  56  84 S7        29.75F
METROPOLIS*    CLOUDY    60  56  88 CALM      29.81S
$$

ILZ067-068-072-073-078-083-087-091-231600-
SOUTHEAST ILLINOIS

CITY           SKY/WX    TMP DP  RH WIND       PRES   REMARKS
LAWRENCEVILLE  CLOUDY    60  57  89 S15       29.79R
FLORA*         MOSUNNY   59  58  97 S12       29.77F
FAIRFIELD*     MOSUNNY   59  57  93 S6        29.77F
HARRISBURG*    MOSUNNY   62  58  87 S8        29.79S
ROBINSON*      MOSUNNY   59  56  91 S12       29.78F
CARMI*         MOSUNNY   60  58  93 S12       29.79S
$$

ABBREVIATIONS USED IN REMARKS
   TC - TEMPERATURE IN CELSIUS
  WCI - WIND CHILL INDEX
   HX - HEAT INDEX
  VSB - VISIBILITY
$$





USA.gov is the U.S. government's official web portal to all federal, state and local government web resources and services.